Regional Weather Roundup
Issued by NWS

Home | Current Version | Previous Version | Graphics & Text | Print | Product List | Glossary On
Versions: 1 2 3 4 5 6 7 8 9 10 11 12 13 14 15 16 17 18 19 20 21 22 23 24 25 26 27 28 29 30 31 32 33 34 35 36 37 38 39 40 41 42 43 44 45 46 47 48 49 50
594
ASUS43 KDTX 110301
RWRMI
MICHIGAN HOURLY REGIONAL WEATHER ROUNDUP
NATIONAL WEATHER SERVICE DETROIT/PONTIAC MI
1000 PM EST WED FEB 10 2016

NOTE: "FAIR" INDICATES FEW OR NO CLOUDS BELOW 12,000 FEET WITH NO
SIGNIFICANT WEATHER AND/OR OBSTRUCTION TO VISIBILITY.

MIZ047>049-052>055-059>063-066>070-074>076-081>083-110400-
SOUTHEAST LOWER MICHIGAN

CITY           SKY/WX    TMP DP  RH WIND       PRES   REMARKS
ADRIAN         FLURRIES  15   6  67 NW10      30.02R WCI   2
ALMA           CLEAR     12   6  77 W6        30.02S WCI   2
ANN ARBOR      PTCLDY    14   7  73 NW13      29.99R WCI   0
BAD AXE        CLOUDY    10   2  69 NW12      29.94S WCI  -4
CARO           CLOUDY    10   1  67 NW13      29.97R WCI  -5
DETROIT CITY   CLEAR     15   1  53 NW9G17    29.98R WCI   3
DETROIT        MOCLDY    15   5  64 W12       30.00R WCI   2
FLINT          CLOUDY    13   2  61 NW9       29.99R WCI   1
GROSSE ILE     CLOUDY    16  10  79 NW9       29.99R WCI   4
HILLSDALE      CLEAR     13   1  58 NW15      29.99R WCI  -3
HOWELL         CLEAR     10   3  74 NW7       29.98R WCI  -1

CITY           SKY/WX    TMP DP  RH WIND       PRES   REMARKS
JACKSON        CLEAR     12   0  58 W7        30.00R WCI   1
LAMBERTVILLE   CLOUDY    17   3  56 NW10G16   30.02R WCI   4
LANSING        CLEAR     12   3  67 W9        30.02R WCI   0
LAPEER         CLOUDY    10   1  64 NW8       29.97R WCI  -1
MASON          CLEAR     12   3  67 W9        30.01R WCI   0
MONROE         CLOUDY    17   8  67 N10       30.00R WCI   4
MT. CLEMENS    CLEAR     13   0  55 NW13      29.96R WCI  -1
PONTIAC        PTCLDY     9   1  70 NW8       29.95R WCI  -3
PORT HOPE        N/A     13   5  70 NW23G36   29.91R WCI  -6
PORT HURON     MOCLDY    12   1  62 NW9G16    29.96R WCI   0
TRI CITIES     CLEAR     12   0  58 NW12      30.01R WCI  -2
MIDLAND        FAIR      11   0  60 NW7       30.01R WCI   0
TROY           CLEAR     14   3  61 NW10      30.00R WCI   1
SAGINAW HB     CLEAR     10   3  72 NW9       30.00R WCI  -2
$$
MIZ043>046-050>051-056>058-064>065-071>073-077>080-110400-
SOUTHWEST LOWER MICHIGAN

CITY           SKY/WX    TMP DP  RH WIND       PRES   REMARKS
BATTLE CREEK   CLEAR     13   3  64 NW8       30.04R WCI   2
BENTON HARBOR  CLOUDY    19   6  57 VRB7      30.08S WCI  10
BIG RAPIDS     PTCLDY    10   6  85 W5        30.00S WCI   2
COLDWATER      CLOUDY    15   7  69 W6        30.03R WCI   6
FREMONT        MOCLDY    14   9  81 NW7       30.04R WCI   4
HOLLAND        LGT SNOW  16  10  77 CALM      30.07R
GRAND RAPIDS   MOCLDY    15   8  73 NW8       30.04R WCI   4
IONIA          MOCLDY    13   6  73 NW8       30.02S WCI   1
KALAMAZOO      CLOUDY    13   4  67 W6        30.05R WCI   4
LUDINGTON      CLOUDY    16   6  66 NW12G21   30.06S WCI   2
MARSHALL       CLEAR     13   3  65 NW6       30.02R WCI   4
MOUNT PLEASANT FLURRIES  14   6  71 NW6       30.01R WCI   5
MUSKEGON       CLOUDY    16   8  71 N8        30.07R WCI   5
SOUTH HAVEN    CLOUDY    17  11  80 E3        30.07R
$$
MIZ016>042-110400-
NORTHERN LOWER MICHIGAN

CITY           SKY/WX    TMP DP  RH WIND       PRES   REMARKS
ALPENA         LGT SNOW   9   4  80 W5        29.95R WCI   1
BEAVER ISLAND  MOCLDY    13   5  70 NW9G20    30.01S WCI   1
BELLAIRE       CLOUDY    14   2  59 NW7       30.01S WCI   4
CADILLAC       LGT SNOW  12   6  79 NW16G22   29.94S WCI  -5
CHARLEVOIX     CLOUDY    15   5  65 NW23G30   30.02S WCI  -4
FRANKFORT      LGT SNOW  15   8  75 NW12G23   30.05R WCI   2
GAYLORD        CLOUDY     8  -1  66 VRB5      29.92S WCI   0
GRAYLING       LGT SNOW  10   4  80 NW5       29.96R WCI   1
HARBOR SPRINGS CLOUDY    11   2  70 CALM      29.99S
HOUGHTON LAKE  PTCLDY     7  -1  70 NW5       29.96R WCI  -2
MANISTEE       CLOUDY    16   5  62 NW17G29   30.04S WCI   0
OSCODA         CLOUDY     9  -1  65 NW10      29.95R WCI  -6
PELLSTON       CLOUDY     9   1  70 NW9       29.99S WCI  -4
ROGERS CITY    CLOUDY    10   0  63 NW10G22   29.97R WCI  -3
TRAVERSE CITY  LGT SNOW  15  10  80 N15G21    30.01S VSB 3/4 WCI   0
$$
MIZ007>008-015-110400-
EASTERN UPPER MICHIGAN

CITY           SKY/WX    TMP DP  RH WIND       PRES   REMARKS
KINROSS        CLEAR      1  -6  71 N9        29.98R WCI -14
MACKINAC ISLAN LGT SNOW   8   3  82 N8        29.98R WCI  -5
NEWBERRY       LGT SNOW   9   7  89 NW3       29.98S
S. S. MARIE    CLEAR      2  -9  60 N9G20     30.00R WCI -13
$$
MIZ004>006-011>014-085-110400-
CENTRAL UPPER MICHIGAN

CITY           SKY/WX    TMP DP  RH WIND       PRES   REMARKS
MANISTIQUE     LGT SNOW   9   5  84 W9        30.03R WCI  -4
ESCANABA       CLEAR      9  -2  61 NW16      30.08S WCI  -9
MENOMINEE      CLEAR      5  -8  56 N6        30.12S WCI  -6
SAWYER-GWINN   FLURRIES   5   0  78 NW13      30.02S WCI -12
$$
MIZ001>003-009>011-084-110400-
WESTERN UPPER MICHIGAN

CITY           SKY/WX    TMP DP  RH WIND       PRES   REMARKS
IRON MOUNTAIN  CLOUDY     7  -4  60 NW6       30.07S WCI  -3
HOUGHTON       LGT SNOW   9   1  70 NW13      30.07S WCI  -7
COPPER HARBOR    N/A     13   5  70 N22G31    30.09S WCI  -6
IRONWOOD       CLOUDY     9   3  78 NW7       30.10S WCI  -3
$$

ABBREVIATIONS USED IN REMARKS
   TC - TEMPERATURE IN CELSIUS
  WCI - WIND CHILL INDEX
   HX - HEAT INDEX
  VSB - VISIBILITY





USA.gov is the U.S. government's official web portal to all federal, state and local government web resources and services.